Terminal Aerodrome Forecast
Issued by NWS

Home | Current Version | Previous Version | Text Only | Print | Product List | Glossary On
Versions: 1 2 3 4 5 6 7 8 9 10 11 12 13 14 15 16 17 18 19 20 21
000
FTUS42 KFFC 051346 AAA
TAFPDK
TAF AMD
KPDK 051346Z 0514/0612 29007KT 3SM -RA OVC003
     FM051600 32010G15KT 6SM -RA OVC008
     FM052100 32010G20KT P6SM VCSH OVC012
     FM060100 34008KT P6SM OVC025
     FM061000 01007KT P6SM BKN025=

USA.gov is the U.S. government's official web portal to all federal, state and local government web resources and services.